User: anonymous   Login
Location: Mentone
(34.5413°N, 85.5351°W)
Time: 21:50:30
(UTC-06:00)
Language:

A-11 Canister half - Orbit

View from above orbital plane
View from above orbital plane
View from above satellite
View from above satellite

Ground track
Ground track

The orbit data is extracted from the following two-line orbital elements,

1 00053U 60009E   14327.31708102 -.00000084  00000-0  00000+0 0  6036
2 00053 047.2778 048.3867 0100376 193.8780 268.2610 12.17156616420933
Epoch (UTC): 23 November 2014 07:36:35
Eccentricity: 0.0100376
inclination: 47.2778°
perigee height: 1525 km
apogee height: 1685 km
right ascension of ascending node: 48.3867°
argument of perigee: 193.8780°
revolutions per day: 12.17156616
mean anomaly at epoch: 268.2610°
orbit number at epoch: 42093

The dashed part of the orbit path shows where the satellite is in the earth's shadow,  

DLR